DW9771 Weather Reports


time (UTC)temp
C
wind
direction
speed
KPH
gust
KPH
rain 1hr
cm
rain 24hr
cm
rain mn
cm
humidity
%
barometer
mb
20260506193055 12 105 1.6 6.4 0.00 0.00 0.00 87 1021.7
20260506191552 12 359 0.0 6.4 0.00 0.00 0.00 90 1021.6
20260506190049 11 73 0.0 4.8 0.00 0.00 0.00 92 1021.5
20260506184552 11 345 0.0 4.8 0.00 0.00 0.00 93 1021.4
20260506183049 11 19 1.6 6.4 0.00 0.00 0.00 92 1021.4
20260506181548 11 262 0.0 3.2 0.00 0.00 0.00 92 1021.3
20260506180046 11 342 1.6 4.8 0.00 0.00 0.00 91 1021.3
20260506174545 11 290 1.6 4.8 0.00 0.00 0.00 91 1021.4
20260506173059 11 350 3.2 6.4 0.00 0.00 0.00 90 1021.4
20260506171552 11 302 3.2 4.8 0.00 0.00 0.00 89 1021.1
20260506170040 11 272 1.6 6.4 0.00 0.00 0.00 89 1021.0
20260506164538 11 155 0.0 3.2 0.00 0.00 0.00 86 1020.9
20260506163052 11 238 0.0 3.2 0.00 0.00 0.00 86 1020.8
20260506161542 11 131 0.0 1.6 0.00 0.00 0.00 86 1020.8
20260506160037 11 115 1.6 4.8 0.00 0.00 0.00 85 1020.8
20260506154538 11 259 0.0 3.2 0.00 0.00 0.00 85 1020.7
20260506153039 11 200 1.6 4.8 0.00 0.00 0.00 85 1020.6
20260506151532 11 51 0.0 6.4 0.00 0.00 0.00 84 1020.4
20260506150032 11 243 0.0 3.2 0.00 0.00 0.00 84 1020.3
20260506144528 11 232 0.0 6.4 0.00 0.00 0.00 84 1020.2
20260506143027 11 41 0.0 3.2 0.00 0.00 0.00 84 1019.9
20260506141526 11 86 0.0 3.2 0.00 0.00 0.00 84 1019.8
20260506140025 11 120 0.0 3.2 0.00 0.00 0.00 84 1019.8
20260506134524 11 158 0.0 3.2 0.00 0.00 0.00 84 1019.7
20260506133023 11 319 0.0 1.6 0.00 0.00 0.00 85 1019.4
20260506131520 11 222 0.0 6.4 0.00 0.00 0.00 85 1019.3
20260506130020 11 193 1.6 6.4 0.00 0.00 0.00 85 1019.2
20260506124519 11 245 0.0 3.2 0.00 0.00 0.00 85 1019.4
20260506123018 11 328 3.2 4.8 0.00 0.00 0.00 86 1019.4
20260506121517 11 12 0.0 6.4 0.00 0.00 0.00 86 1019.3
20260506120016 11 146 0.0 4.8 0.00 0.00 0.00 86 1019.4
20260506114513 11 321 0.0 1.6 0.00 0.00 0.00 86 1019.0
20260506113016 11 274 0.0 3.2 0.00 0.00 0.00 86 1019.2
20260506111512 11 344 1.6 4.8 0.00 0.00 0.00 86 1019.1
20260506110011 11 20 1.6 6.4 0.00 0.00 0.00 86 1019.1
20260506104510 11 331 0.0 3.2 0.00 0.00 0.00 86 1018.9
20260506103008 11 240 1.6 6.4 0.00 0.00 0.00 86 1018.8
20260506101505 11 330 0.0 4.8 0.00 0.00 0.00 87 1018.7
20260506100005 11 325 0.0 4.8 0.00 0.00 0.00 87 1018.6
20260506094507 11 333 0.0 3.2 0.00 0.00 0.00 87 1018.7
20260506093011 11 302 0.0 4.8 0.00 0.00 0.00 87 1018.7
20260506091503 11 63 1.6 6.4 0.00 0.00 0.00 87 1018.5
20260506090001 11 283 0.0 3.2 0.00 0.00 0.00 86 1018.4
20260506084601 11 321 1.6 9.7 0.00 0.00 0.00 86 1018.3
20260506083058 11 338 0.0 1.6 0.00 0.00 0.00 87 1018.2
20260506081558 11 243 0.0 1.6 0.00 0.00 0.00 87 1018.3
20260506080112 11 295 0.0 4.8 0.00 0.00 0.00 86 1018.2
20260506073103 11 343 1.6 4.8 0.00 0.00 0.00 86 1017.7
20260506071549 11 356 0.0 8.0 0.00 0.00 0.00 86 1017.6
20260506061556 11 359 0.0 6.4 0.00 0.00 0.00 86 1017.6
20260506044540 12 293 0.0 4.8 0.00 0.00 0.00 84 1017.4
20260506043038 12 321 0.0 4.8 0.00 0.00 0.00 84 1017.3
20260506041540 12 330 0.0 3.2 0.00 0.00 0.00 84 1017.1
20260506040037 12 238 0.0 1.6 0.00 0.00 0.00 83 1016.9
20260506034536 12 204 0.0 1.6 0.00 0.00 0.00 83 1016.7
20260506033036 12 98 0.0 4.8 0.00 0.00 0.00 83 1016.7
20260506031536 12 193 0.0 3.2 0.00 0.00 0.00 83 1016.6
20260506030036 12 146 0.0 3.2 0.00 0.00 0.00 82 1016.7
20260506024535 12 50 0.0 4.8 0.00 0.00 0.00 82 1016.5
20260506023047 13 347 0.0 4.8 0.00 0.00 0.00 82 1016.4
20260506021534 13 156 0.0 8.0 0.00 0.00 0.00 81 1016.4
20260506020106 13 297 0.0 4.8 0.00 0.00 0.00 82 1016.5
20260506014533 13 343 1.6 8.0 0.00 0.00 0.00 82 1016.5
20260506013033 13 341 1.6 9.7 0.00 0.00 0.00 82 1016.5
20260506011534 13 301 1.6 6.4 0.00 0.00 0.00 82 1016.4
20260506010031 13 340 3.2 8.0 0.00 0.00 0.00 82 1016.5
20260506004539 13 338 3.2 8.0 0.00 0.00 0.00 82 1016.5
20260506003030 13 326 3.2 8.0 0.00 0.00 0.00 81 1016.5
20260506001529 14 311 1.6 8.0 0.00 0.00 0.00 80 1016.5
20260506000043 14 13 3.2 9.7 0.00 0.00 0.00 80 1016.6
20260505234527 14 340 1.6 9.7 0.00 0.00 0.00 80 1016.7
20260505233028 14 345 1.6 8.0 0.00 0.00 0.00 80 1016.8
20260505231529 15 9 1.6 6.4 0.00 0.00 0.00 79 1016.9
20260505230039 15 276 1.6 6.4 0.00 0.00 0.00 77 1016.9
20260505224525 15 46 3.2 9.7 0.00 0.00 0.00 77 1016.9
20260505223024 15 331 1.6 8.0 0.00 0.00 0.00 76 1017.0
20260505221524 15 187 1.6 6.4 0.00 0.00 0.00 76 1017.1
20260505220023 16 271 1.6 6.4 0.00 0.00 0.00 75 1017.2
20260505214524 16 278 1.6 4.8 0.00 0.00 0.00 74 1017.2
20260505213027 16 301 1.6 4.8 0.00 0.00 0.00 75 1017.3
20260505211529 16 107 1.6 6.4 0.00 0.00 0.00 75 1017.2
20260505210020 16 145 1.6 6.4 0.00 0.00 0.00 75 1017.2
20260505204519 16 56 1.6 4.8 0.00 0.00 0.00 75 1017.3
20260505203018 16 119 1.6 3.2 0.00 0.00 0.00 75 1017.4
20260505201516 16 108 1.6 4.8 0.00 0.00 0.00 76 1017.3
20260505200014 16 165 1.6 6.4 0.00 0.00 0.00 77 1017.2
20260505194513 15 198 1.6 4.8 0.00 0.00 0.00 77 1017.1